This demonstration page uses our WeatherBlox Daily Observations layout. Learn more.

Left ArrowRight Arrow

39.12711, -84.51439

Hourly Observations for September 19, 2022

Temp ( °F °C ) Dew Point ( °F °C ) Humidity (%) Winds ( mph kmh ) Pressure ( in mb ) Visibility ( mi km ) Precip ( " mm )
12:53 am 00:53 Clear 66 18.9 64 17.8 93 93 Calm N/A 7 11 0.00 0.00
1:53 am 01:53 Mostly Cloudy with Mist and Fog 66 18.9 64 17.8 93 93 Calm N/A 6 10 0.00 0.00
2:53 am 02:53 Mostly Cloudy 66 18.9 64 17.8 93 93 Calm N/A 7 11 0.00 0.00
3:53 am 03:53 Mostly Cloudy with Mist and Fog 66 18.9 65 18.3 96 96 Calm N/A 6 10 0.00 0.00
4:53 am 04:53 Cloudy with Mist and Fog 67 19.4 66 18.9 97 97 SSW 3 6 N/A 6 10 0.00 0.00
5:53 am 05:53 Partly Cloudy 68 20 63 17.2 84 84 SW 8 13 N/A 8 13 0.00 0.00
6:53 am 06:53 Mostly Clear with Light Rain 71 21.7 63 17.2 76 76 SW 15 24 29.99 1016 7 11 0.01 0.13
7:53 am 07:53 Mostly Cloudy with Light Rain 69 20.6 66 18.9 90 90 SW 17 28 29.93 1014 7 11 0.01 0.13
8:53 am 08:53 Mostly Cloudy 72 22.2 67 19.4 84 84 WSW 9 15 30.01 1016 7 11 0.01 0.13
9:53 am 09:53 Sunny 75 23.9 68 20 79 79 WSW 7 11 30.01 1016 7 11 0.00 0.00
10:53 am 10:53 Sunny 78 25.6 69 20.6 74 74 WSW 13 20 30.01 1016 10 16 0.00 0.00
11:53 am 11:53 Mostly Sunny 80 26.7 70 21.1 71 71 WSW 9 15 29.98 1015 10 16 0.00 0.00
12:53 pm 12:53 Partly Cloudy 82 27.8 68 20 63 63 WSW 14 22 29.96 1015 10 16 0.00 0.00
1:53 pm 13:53 Cloudy 82 27.8 67 19.4 60 60 W 9 15 29.96 1014 10 16 0.00 0.00
2:53 pm 14:53 Cloudy 82 27.8 68 20 63 63 W 7 11 29.94 1014 10 16 0.00 0.00
3:53 pm 15:53 Cloudy 81 27.2 67 19.4 62 62 WNW 7 11 29.94 1014 10 16 0.00 0.00
4:53 pm 16:53 Partly Cloudy 83 28.3 68 20 61 61 WNW 9 15 29.94 1014 10 16 0.00 0.00
5:53 pm 17:53 Mostly Cloudy 81 27.2 68 20 65 65 WNW 8 13 29.95 1014 10 16 0.00 0.00
6:53 pm 18:53 Mostly Sunny 80 26.7 68 20 67 67 NW 6 9 29.96 1014 10 16 0.00 0.00
7:53 pm 19:53 Clear 78 25.6 68 20 71 71 WNW 5 7 29.96 1015 10 16 0.00 0.00
8:53 pm 20:53 Clear 71 21.7 69 20.6 93 93 ESE 3 6 29.98 1015 8 13 0.00 0.00
9:53 pm 21:53 Clear 69 20.6 69 20.6 100 100 Calm 30.00 1016 7 11 0.00 0.00
10:53 pm 22:53 Clear 67 19.4 67 19.4 100 100 Calm 30.00 1016 7 11 0.00 0.00
10:58 pm 22:58 Clear with Mist and Fog 66 18.9 66 18.9 100 100 Calm 30.01 1016 1 2 0.00 0.00
11:07 pm 23:07 Clear with Mist and Fog 67 19.4 67 19.4 100 100 Calm 30.01 1016 1 1 0.00 0.00
11:22 pm 23:22 Mostly Clear with Fog 67 19.4 67 19.4 100 100 Calm 30.01 1016 0 0 0.00 0.00
11:35 pm 23:35 Clear with Fog 66 18.9 66 18.9 100 100 Calm 30.01 1016 1 1 0.00 0.00
11:41 pm 23:41 Clear with Mist and Fog 67 19.4 67 19.4 100 100 Calm 30.01 1016 2 3 0.00 0.00
11:52 pm 23:52 Clear with Fog 67 19.4 67 19.4 100 100 Calm 30.01 1016 1 1 0.00 0.00

Powered by AerisWeather